User: anonymous
Location: Unspecified
(0.0000°N, 0.0000°E)
Time: 14:22:51
(UTC+00:00)
Language:

PW SAT - Orbit

View from above orbital plane
View from above orbital plane
View from above satellite
View from above satellite

Ground track
Ground track

The orbit data is extracted from the following two-line orbital elements,

1 38083U 12006G   14209.11767875  .00097242  59765-5  73204-3 0  4635
2 38083 069.4425 221.3850 0264852 283.2320 073.9437 15.38216212130213
Epoch (UTC): 28 July 2014 02:49:27
Eccentricity: 0.0264852
inclination: 69.4425°
perigee height: 270 km
apogee height: 632 km
right ascension of ascending node: 221.3850°
argument of perigee: 283.2320°
revolutions per day: 15.38216212
mean anomaly at epoch: 73.9437°
orbit number at epoch: 13021

The dashed part of the orbit path shows where the satellite is in the earth's shadow,  

DLR